Terminal Aerodrome Forecast
Issued by NWS

Current Version | Previous Version | Graphics & Text | Print | Product List | Glossary On
Versions: 1 2 3 4 5 6 7 8 9 10 11 12 13 14 15 16 17 18 19 20 21 22 23 24 25 26
000
FTUS41 KILN 271600 AAC
TAFLUK
TAF AMD
KLUK 271620Z 2716/2812 29010G16KT P6SM BKN022 OVC035
     FM271800 31012G20KT P6SM BKN040
     FM272300 30012G20KT P6SM SCT050
     FM280500 29010KT P6SM SKC=

USA.gov is the U.S. government's official web portal to all federal, state and local government web resources and services.